Location: Del Amo
(33.8464°N, 118.2104°W)
Time: 19:46:03
(UTC+00:00)

Vanguard 1 Rocket - Pass Details

Date: 14 September 2024
Orbit: 650 x 4218 km, 34.3° (Epoch: 04 October)

Event Time Altitude Azimuth Distance (km) Brightness Sun altitude
Rises 08:50:59 0° 198° (SSW) 4,476 - -50.2°
Reaches altitude 10° 08:53:59 10° 186° (S) 3,889 - -49.9°
Maximum altitude 09:03:03 30° 130° (SE) 3,656 - -49.0°
Exits shadow 09:04:41 29° 120° (ESE) 3,858 10.4 -48.9°
Drops below altitude 10° 09:17:52 10° 79° (E) 6,486 12.0 -47.4°
Sets 09:24:53 0° 71° (ENE) 7,986 12.7 -46.6°
